Location: Valdosta
(30.8330°N, 83.2790°W)
Time: 04:18:54
(UTC-04:00)

Amateur Radio Satellites - All Passes

Search period start: 30 June 2015 03:48
Search period end: 01 July 2015 03:48
Location: Valdosta, 30.8330°N, 83.2790°W

Satellite Date Start Highest point End Downlink Frequencies (MHz)
Time Altitude Azimuth
JAS-2 30 Jun 03:52:50 03:57:42 22° 95° (E) 04:03:14 435.910
Gurwin Techsat 1B 30 Jun 03:58:18 04:03:39 84° 101° (ESE) 04:08:58 435.225
KKS-1 30 Jun 04:03:33 04:08:00 65° 259° (W) 04:12:26 437.445
Cosmos 2491 30 Jun 04:03:48 04:12:34 80° 83° (E) 04:21:17 435.465 / 435.565
AO-7 30 Jun 04:14:21 04:19:50 20° 93° (E) 04:25:46 29.400- 29.500
SO-50 30 Jun 04:27:06 04:32:03 85° 246° (WSW) 04:36:52 436.795
YUBILEINY 30 Jun 04:32:28 04:41:01 66° 93° (E) 04:49:37 435.215
ITAMSAT 1 30 Jun 04:34:45 04:39:40 42° 287° (WNW) 04:44:32 435.822/435.867
Oscar 19 30 Jun 04:38:43 04:39:07 10° 294° (WNW) 04:39:09 437.125/150
HORYU 2 30 Jun 05:00:22 05:04:39 47° 100° (E) 05:08:58 437.375
STARS 30 Jun 05:09:58 05:13:06 18° 266° (W) 05:16:04 437.465
MOZHAYETS 4 30 Jun 05:20:30 05:25:02 74° 77° (ENE) 05:29:36
AIST 1 30 Jun 05:24:04 05:27:15 19° 270° (W) 05:30:16
JAS-2 30 Jun 05:36:33 05:42:56 55° 285° (WNW) 05:50:01 435.910
RS-15 30 Jun 05:43:51 05:53:11 30° 315° (NW) 06:02:28 29.354- 29.394
Cosmos 2491 30 Jun 06:03:37 06:08:36 16° 277° (W) 06:12:56 435.465 / 435.565
AO-7 30 Jun 06:05:00 06:13:19 70° 289° (WNW) 06:21:33 29.400- 29.500
Cosmos 2504 30 Jun 06:19:11 06:25:13 30° 89° (E) 06:31:19 435.465 / 435.565
YUBILEINY 30 Jun 06:32:17 06:38:37 21° 290° (WNW) 06:44:30 435.215
CUTE-I 30 Jun 06:35:10 06:37:08 12° 91° (E) 06:39:29 437.470
HORYU 2 30 Jun 06:39:02 06:40:56 12° 291° (WNW) 06:42:35 437.375
Cubesat XI-IV 30 Jun 07:05:41 07:10:11 28° 96° (E) 07:14:47 437.490
CUBESAT XI-V 30 Jun 07:09:58 07:14:39 88° 77° (ENE) 07:19:23 437.345
STRAND 1 30 Jun 07:42:19 07:47:22 65° 75° (ENE) 07:52:29 437.568
CUSAT 1 30 Jun 07:51:51 07:55:21 15° 93° (E) 07:58:59 437.405
PRISM 30 Jun 07:56:34 08:00:43 85° 261° (W) 08:04:54 437.425
AO-7 30 Jun 08:02:12 08:04:53 11° 304° (NW) 08:06:55 29.400- 29.500
Cosmos 2504 30 Jun 08:11:46 08:18:29 37° 283° (WNW) 08:24:56 435.465 / 435.565
CUTE-I 30 Jun 08:12:24 08:17:41 60° 285° (WNW) 08:22:56 437.470
BEESAT 3 30 Jun 08:15:58 08:19:14 24° 112° (ESE) 08:22:36 437.485
DANDE 30 Jun 08:19:00 08:24:34 22° 93° (E) 08:29:50 436.750
BEESAT 2 30 Jun 08:21:18 08:24:24 22° 111° (ESE) 08:27:37 435.950
O/OREOS (USA 219) 30 Jun 08:44:04 08:48:23 51° 106° (ESE) 08:52:44 437.305
Cubesat XI-IV 30 Jun 08:45:40 08:50:14 28° 289° (WNW) 08:54:42 437.490
AUBIESAT-1 30 Jun 08:51:11 08:54:07 30° 70° (ENE) 08:57:05 437.475
VERMONT LUNAR 30 Jun 08:57:04 08:59:49 29° 145° (SE) 09:02:37 437.305
AIST 2 30 Jun 09:07:51 09:10:31 17° 110° (ESE) 09:13:21 435.215
GONETS M04 30 Jun 09:10:18 09:16:30 23° 86° (E) 09:23:05
DOVE 4 30 Jun 09:13:37 09:16:12 17° 94° (E) 09:18:56 437.250
M-CUBED/EXP-1 PRIME 30 Jun 09:20:21 09:23:38 69° 254° (WSW) 09:26:55 437.505
SEEDS 30 Jun 09:24:55 09:27:39 17° 94° (E) 09:30:32 437.485
STRAND 1 30 Jun 09:25:57 09:27:06 10° 270° (W) 09:27:49 437.568
CUSAT 1 30 Jun 09:30:22 09:37:57 73° 278° (W) 09:43:57 437.405
BRITE-PL 30 Jun 09:42:01 09:46:19 61° 284° (WNW) 09:50:24 437.365/2234.400
GOMX 1 30 Jun 09:42:15 09:46:27 72° 100° (E) 09:50:35 467.674
HO-68 30 Jun 09:42:48 09:49:35 46° 100° (E) 09:56:26 435.675
ISS 30 Jun 09:42:49 09:45:59 57° 133° (SE) 09:49:11 145.825
PHONESAT 2.4 30 Jun 09:43:50 09:45:08 12° 140° (SE) 09:46:33 2401.200-2431.200
AAUSAT CUBESAT 2 30 Jun 09:48:01 09:51:12 21° 95° (E) 09:54:29 437.432
BEESAT 3 30 Jun 09:53:58 09:57:09 21° 306° (NW) 10:00:16 437.485
BEESAT 2 30 Jun 09:58:58 10:02:22 24° 305° (NW) 10:05:42 435.950
DANDE 30 Jun 09:59:37 10:07:40 59° 279° (W) 10:14:13 436.750
CUTE 1.7 + AOD 2 30 Jun 10:03:09 10:07:25 68° 101° (E) 10:11:40 437.475
CANX-2 30 Jun 10:05:43 10:10:00 84° 101° (ESE) 10:14:18 2200.000
COMPASS 1 30 Jun 10:09:06 10:13:11 48° 99° (E) 10:17:17 437.405
CUBEBUG 2 30 Jun 10:18:52 10:21:54 20° 95° (E) 10:25:06 437.445
O/OREOS (USA 219) 30 Jun 10:26:42 10:28:12 11° 302° (WNW) 10:29:25 437.305
RS-15 30 Jun 10:27:23 10:31:36 13° 26° (NNE) 10:36:34 29.354- 29.394
UNISAT 6 30 Jun 10:29:46 10:32:19 16° 71° (ENE) 10:35:02 437.425
CINEMA 3 30 Jun 10:33:48 10:37:57 74° 101° (E) 10:42:10 145.822/145.860
VERMONT LUNAR 30 Jun 10:33:49 10:36:44 34° 338° (NNW) 10:39:40 437.305
DELFI C3 30 Jun 10:37:00 10:40:14 23° 95° (E) 10:43:33 145.870
ZACube-1 30 Jun 10:42:15 10:45:31 22° 95° (E) 10:48:56 437.345
AIST 2 30 Jun 10:45:01 10:48:52 32° 303° (WNW) 10:52:42 435.215
Cosmos 2499 30 Jun 10:48:15 10:51:39 15° 86° (E) 10:55:32 435.465 / 435.565
DOVE 4 30 Jun 10:50:31 10:54:03 26° 287° (WNW) 10:57:29 437.250
NANOSAT C BR1 30 Jun 10:56:10 10:57:41 12° 70° (ENE) 10:59:26 145.865
SEEDS 30 Jun 10:59:47 11:03:29 29° 286° (WNW) 11:07:07 437.485
Oscar 11 30 Jun 11:01:15 11:05:36 76° 100° (E) 11:09:57 145.826/435.025
UKube-1 30 Jun 11:01:27 11:01:32 10° 91° (E) 11:01:57 .
POLYITAN 1 30 Jun 11:02:43 11:05:06 15° 71° (ENE) 11:07:40 437.675
DUCHIFAT 1 30 Jun 11:04:00 11:06:18 15° 71° (ENE) 11:08:47 145.980
GONETS M04 30 Jun 11:04:07 11:12:48 60° 279° (W) 11:21:26
ANTELSAT 30 Jun 11:12:21 11:16:35 53° 76° (ENE) 11:20:47 437.575/2403.000
UWE-3 30 Jun 11:19:14 11:23:27 88° 283° (WNW) 11:27:44 435.000/436.395/437.385
PHONESAT 2.4 30 Jun 11:19:24 11:22:50 87° 327° (NNW) 11:26:18 2401.200-2431.200
FUNcube-1 30 Jun 11:19:51 11:24:01 67° 101° (E) 11:28:17 145.935
ISS 30 Jun 11:21:15 11:22:41 12° 328° (NNW) 11:24:00 145.825
AAUSAT CUBESAT 2 30 Jun 11:23:23 11:26:43 23° 287° (WNW) 11:29:58 437.432
TIGRISAT 30 Jun 11:26:47 11:31:08 79° 78° (ENE) 11:35:26 435.000
HO-68 30 Jun 11:31:10 11:37:04 27° 293° (WNW) 11:42:45 435.675
QB50P2 30 Jun 11:31:37 11:35:28 35° 74° (ENE) 11:39:22 145.880/145.840
POPSAT HIP 1 30 Jun 11:33:35 11:37:28 35° 74° (ENE) 11:41:23 437.405
VELOX 1 30 Jun 11:38:46 11:41:42 18° 94° (E) 11:44:46 145.980
HUMSAT D 30 Jun 11:40:09 11:44:09 46° 99° (E) 11:48:12 437.325/437.525
BUGSAT 1 30 Jun 11:41:05 11:44:39 27° 73° (ENE) 11:48:17 437.445
COMPASS 1 30 Jun 11:47:30 11:48:29 10° 290° (WNW) 11:49:11 437.405
CUBEBUG 2 30 Jun 11:55:09 11:58:35 24° 287° (WNW) 12:01:57 437.445
UNISAT 6 30 Jun 12:04:57 12:08:53 32° 263° (W) 12:12:44 437.425
DX 1 30 Jun 12:05:26 12:09:47 80° 102° (ESE) 12:14:06 434.975-435.025
DELFI C3 30 Jun 12:12:13 12:15:12 19° 288° (WNW) 12:18:04 145.870
VERMONT LUNAR 30 Jun 12:12:20 12:14:15 15° 354° (N) 12:16:10 437.305
QB50P1 30 Jun 12:12:45 12:17:01 70° 260° (W) 12:21:15 145.935-145.965
ZACube-1 30 Jun 12:18:32 12:21:48 22° 287° (WNW) 12:25:00 437.345
AISAT 30 Jun 12:23:05 12:27:28 68° 101° (ESE) 12:31:50 437.250
NANOSAT C BR1 30 Jun 12:29:07 12:33:11 43° 261° (W) 12:37:13 145.865
UKube-1 30 Jun 12:33:49 12:38:00 49° 285° (WNW) 12:42:09 .
POLYITAN 1 30 Jun 12:36:53 12:40:46 33° 263° (W) 12:44:36 437.675
RS-15 30 Jun 12:36:57 12:48:08 49° 54° (NE) 12:59:52 29.354- 29.394
Cosmos 2499 30 Jun 12:37:07 12:44:14 66° 278° (W) 12:51:14 435.465 / 435.565
ESTCUBE 1 30 Jun 12:37:49 12:42:19 60° 101° (E) 12:46:46 437.505/2401.250
DUCHIFAT 1 30 Jun 12:37:58 12:41:51 34° 262° (W) 12:45:42 145.980
SPROUT 30 Jun 12:42:29 12:44:18 13° 92° (E) 12:46:22 437.525
50 SAT 30 Jun 12:45:40 12:49:24 46° 284° (WNW) 12:53:10 437.505
CUBEBUG 1 30 Jun 12:56:10 13:00:33 85° 99° (E) 13:04:53 437.445
PHONESAT 2.4 30 Jun 12:58:24 13:01:11 22° 346° (NNW) 13:03:57 2401.200-2431.200
QB50P2 30 Jun 13:09:09 13:11:31 14° 267° (W) 13:13:39 145.880/145.840
POPSAT HIP 1 30 Jun 13:11:11 13:13:29 14° 267° (W) 13:15:33 437.405
VELOX 1 30 Jun 13:14:26 13:18:18 29° 287° (WNW) 13:22:05 145.980
BUGSAT 1 30 Jun 13:17:06 13:20:08 18° 266° (W) 13:23:00 437.445
HUMSAT D 30 Jun 13:18:39 13:19:32 10° 290° (WNW) 13:20:10 437.325/437.525
TISAT 1 30 Jun 13:41:07 13:45:08 45° 99° (E) 13:49:08 437.305
VERMONT LUNAR 30 Jun 13:49:44 13:51:58 18° 11° (N) 13:54:14 437.305
Oscar 19 30 Jun 14:06:30 14:11:34 61° 75° (ENE) 14:16:38 437.125/150
ITAMSAT 1 30 Jun 14:09:57 14:12:56 16° 68° (ENE) 14:16:11 435.822/435.867
SPROUT 30 Jun 14:16:37 14:20:35 38° 286° (WNW) 14:24:30 437.525
PHONESAT 2.4 30 Jun 14:37:40 14:39:58 17° 3° (N) 14:42:18 2401.200-2431.200
RS-15 30 Jun 14:49:34 15:00:37 44° 251° (WSW) 15:11:41 29.354- 29.394
YUBILEINY 30 Jun 14:50:32 14:57:07 24° 71° (ENE) 15:04:06 435.215
Cosmos 2491 30 Jun 15:05:27 15:10:14 17° 84° (E) 15:15:38 435.465 / 435.565
BEESAT 30 Jun 15:08:30 15:13:16 66° 101° (E) 15:18:02 436.000
AO-7 30 Jun 15:08:43 15:13:40 18° 60° (ENE) 15:19:05 29.400- 29.500
Gurwin Techsat 1B 30 Jun 15:13:49 15:19:06 78° 77° (ENE) 15:24:27 435.225
TISAT 1 30 Jun 15:19:17 15:20:32 11° 291° (WNW) 15:21:33 437.305
SWISSCUBE 30 Jun 15:23:21 15:28:09 76° 284° (WNW) 15:32:56 437.505
VERMONT LUNAR 30 Jun 15:26:09 15:29:19 61° 26° (NNE) 15:32:30 437.305
ITUPSAT 1 30 Jun 15:26:21 15:31:11 80° 283° (WNW) 15:35:59 437.325
JAS-2 30 Jun 15:44:49 15:49:20 32° 72° (ENE) 15:53:57 435.910
ITAMSAT 1 30 Jun 15:47:03 15:52:06 48° 260° (W) 15:57:08 435.822/435.867
Oscar 19 30 Jun 15:49:35 15:51:23 11° 269° (W) 15:52:46 437.125/150
HORYU 2 30 Jun 15:54:00 15:57:22 22° 72° (ENE) 16:00:51 437.375
KKS-1 30 Jun 16:00:20 16:04:23 36° 98° (E) 16:08:28 437.445
AIST 1 30 Jun 16:10:23 16:13:24 19° 90° (E) 16:16:34
PHONESAT 2.4 30 Jun 16:15:29 16:18:39 32° 20° (NNE) 16:21:51 2401.200-2431.200
PCSat 30 Jun 16:37:24 16:42:13 35° 109° (ESE) 16:47:09 145.827
YUBILEINY 30 Jun 16:45:58 16:54:31 58° 268° (W) 17:03:00 435.215
BEESAT 30 Jun 16:50:03 16:50:38 10° 293° (WNW) 16:50:52 436.000
AO-7 30 Jun 16:57:19 17:05:39 82° 254° (WSW) 17:14:04 29.400- 29.500
Cosmos 2491 30 Jun 16:57:29 17:06:19 77° 277° (W) 17:15:10 435.465 / 435.565
STARS 30 Jun 17:03:33 17:07:53 64° 284° (WNW) 17:12:11 437.465
VERMONT LUNAR 30 Jun 17:03:59 17:06:04 16° 218° (SW) 17:08:06 437.305
MOZHAYETS 4 30 Jun 17:21:34 17:25:27 27° 96° (E) 17:29:25
HORYU 2 30 Jun 17:30:18 17:33:56 24° 264° (W) 17:37:28 437.375
JAS-2 30 Jun 17:30:38 17:34:36 21° 266° (W) 17:38:23 435.910
KKS-1 30 Jun 17:38:04 17:40:45 15° 290° (WNW) 17:43:15 437.445
AIST 1 30 Jun 17:47:14 17:50:54 25° 283° (WNW) 17:54:31
ISS 30 Jun 17:50:42 17:53:54 58° 45° (NE) 17:57:05 145.825
CUTE-I 30 Jun 17:52:08 17:54:20 13° 67° (ENE) 17:56:52 437.470
PHONESAT 2.4 30 Jun 17:53:24 17:56:45 43° 214° (SSW) 18:00:06 2401.200-2431.200
JUGNU 30 Jun 17:59:27 18:03:13 17° 166° (SSE) 18:07:03 437.505
Cosmos 2504 30 Jun 18:08:25 18:15:57 55° 81° (E) 18:24:04 435.465 / 435.565
BEESAT 3 30 Jun 18:16:36 18:20:25 40° 59° (ENE) 18:24:11 437.485
PCSat 30 Jun 18:21:17 18:25:43 25° 304° (NW) 18:30:03 145.827
BEESAT 2 30 Jun 18:22:28 18:26:14 36° 58° (ENE) 18:29:57 435.950
Cubesat XI-IV 30 Jun 18:22:31 18:26:56 28° 71° (ENE) 18:31:29 437.490
SO-50 30 Jun 18:35:55 18:40:34 72° 299° (WNW) 18:45:23 436.795
SRMSAT 30 Jun 18:45:19 18:46:37 11° 162° (SSE) 18:48:04 437.500
AO-7 30 Jun 18:56:54 18:59:42 11° 271° (W) 19:01:38 29.400- 29.500
MOZHAYETS 4 30 Jun 18:58:54 19:02:33 22° 288° (WNW) 19:06:05
O/OREOS (USA 219) 30 Jun 18:59:26 19:03:41 40° 68° (ENE) 19:07:59 437.305
Cosmos 2491 30 Jun 19:02:32 19:04:56 11° 297° (WNW) 19:06:25 435.465 / 435.565
AIST 2 30 Jun 19:11:42 19:15:23 30° 57° (ENE) 19:19:03 435.215
CUBESAT XI-V 30 Jun 19:12:34 19:16:47 33° 97° (E) 19:21:00 437.345
CUTE-I 30 Jun 19:28:39 19:33:56 63° 259° (WSW) 19:39:17 437.470
PRISM 30 Jun 19:45:06 19:48:10 20° 95° (E) 19:51:21 437.425
JUGNU 30 Jun 19:46:49 19:51:44 27° 175° (S) 19:56:38 437.505
BEESAT 3 30 Jun 19:56:34 19:58:02 11° 251° (WSW) 19:59:15 437.485
STRAND 1 30 Jun 19:58:45 20:03:23 34° 97° (E) 20:08:03 437.568
BEESAT 2 30 Jun 20:01:59 20:04:00 13° 250° (WSW) 20:05:46 435.950
Cubesat XI-IV 30 Jun 20:02:20 20:06:58 29° 264° (W) 20:11:30 437.490
Cosmos 2504 30 Jun 20:03:02 20:09:01 23° 272° (W) 20:14:56 435.465 / 435.565
HO-68 30 Jun 20:07:21 20:12:02 20° 64° (ENE) 20:17:03 435.675
DOVE 4 30 Jun 20:14:55 20:16:49 12° 70° (ENE) 20:18:58 437.250
CUSAT 1 30 Jun 20:16:17 20:18:41 31° 79° (E) 20:21:03 437.405
SRMSAT 30 Jun 20:30:51 20:35:15 22° 169° (S) 20:39:42 437.500
O/OREOS (USA 219) 30 Jun 20:40:29 20:42:48 13° 259° (W) 20:44:52 437.305
GOMX 1 30 Jun 20:43:58 20:49:02 46° 75° (ENE) 20:53:54 467.674
BRITE-PL 30 Jun 20:45:37 20:51:17 81° 78° (ENE) 20:56:43 437.365/2234.400
DANDE 30 Jun 20:49:44 20:52:33 75° 80° (E) 20:55:07 436.750
CUBESAT XI-V 30 Jun 20:50:44 20:54:00 18° 289° (WNW) 20:57:05 437.345
AIST 2 30 Jun 20:50:58 20:53:45 17° 250° (WSW) 20:56:20 435.215
CUTE 1.7 + AOD 2 30 Jun 20:51:17 20:54:36 24° 73° (ENE) 20:58:00 437.475
CANX-2 30 Jun 20:53:41 20:57:15 28° 73° (ENE) 21:00:54 2200.000
COMPASS 1 30 Jun 20:56:14 20:58:46 16° 72° (ENE) 21:01:28 437.405
M-CUBED/EXP-1 PRIME 30 Jun 21:06:36 21:08:53 14° 99° (E) 21:11:28 437.505
PRISM 30 Jun 21:20:10 21:23:35 24° 288° (WNW) 21:26:52 437.425
GONETS M04 30 Jun 21:21:12 21:29:38 54° 80° (E) 21:38:05
CINEMA 3 30 Jun 21:30:07 21:34:22 36° 75° (ENE) 21:38:30 145.822/145.860
JUGNU 30 Jun 21:35:20 21:40:17 27° 185° (S) 21:45:10 437.505
STRAND 1 30 Jun 21:38:29 21:42:24 21° 290° (WNW) 21:46:08 437.568
SEEDS 30 Jun 21:45:38 21:49:48 86° 258° (WSW) 21:53:59 437.485
DOVE 4 30 Jun 21:49:13 21:54:15 57° 260° (W) 21:59:01 437.250
Oscar 11 30 Jun 21:51:03 21:54:41 28° 73° (ENE) 21:58:24 145.826/435.025
HO-68 30 Jun 21:52:10 21:59:16 64° 258° (WSW) 22:06:21 435.675
AAUSAT CUBESAT 2 30 Jun 22:07:41 22:11:47 69° 258° (WSW) 22:15:54 437.432
AUBIESAT-1 30 Jun 22:09:27 22:13:41 75° 106° (ESE) 22:18:12 437.475
FUNcube-1 30 Jun 22:10:49 22:14:20 26° 73° (ENE) 22:17:51 145.935
UWE-3 30 Jun 22:11:12 22:15:10 36° 75° (ENE) 22:19:05 435.000/436.395/437.385
SRMSAT 30 Jun 22:18:57 22:23:56 28° 179° (S) 22:28:54 437.500
GOMX 1 30 Jun 22:23:52 22:27:19 17° 267° (W) 22:30:25 467.674
CUTE 1.7 + AOD 2 30 Jun 22:27:17 22:30:28 20° 265° (W) 22:33:32 437.475
HUMSAT D 30 Jun 22:27:53 22:30:24 16° 72° (ENE) 22:33:05 437.325/437.525
CANX-2 30 Jun 22:30:26 22:33:13 17° 267° (W) 22:35:51 2200.000
COMPASS 1 30 Jun 22:30:38 22:34:15 28° 264° (W) 22:37:49 437.405
Cosmos 2499 30 Jun 22:33:37 22:40:20 31° 76° (ENE) 22:47:40 435.465 / 435.565
M-CUBED/EXP-1 PRIME 30 Jun 22:39:49 22:43:45 39° 289° (WNW) 22:47:55 437.505
CUBEBUG 2 30 Jun 22:47:07 22:51:28 58° 260° (W) 22:55:42 437.445
DELFI C3 30 Jun 22:52:49 22:56:47 67° 260° (W) 23:00:46 145.870
DX 1 30 Jun 22:55:48 22:59:42 33° 73° (ENE) 23:03:41 434.975-435.025
ZACube-1 30 Jun 23:08:09 23:12:22 54° 260° (W) 23:16:30 437.345
CINEMA 3 30 Jun 23:08:43 23:11:40 16° 266° (W) 23:14:20 145.822/145.860
ANTELSAT 30 Jun 23:10:31 23:13:21 17° 94° (E) 23:16:24 437.575/2403.000
AISAT 30 Jun 23:15:41 23:19:34 30° 73° (ENE) 23:23:31 437.250
GONETS M04 30 Jun 23:19:11 23:26:02 25° 274° (W) 23:32:31
UKube-1 30 Jun 23:22:48 23:27:06 67° 75° (ENE) 23:31:25 .
TIGRISAT 30 Jun 23:24:15 23:27:46 24° 96° (E) 23:31:26 435.000
50 SAT 30 Jun 23:24:21 23:27:56 39° 75° (ENE) 23:31:32 437.505
JUGNU 30 Jun 23:24:49 23:28:46 18° 194° (SSW) 23:32:39 437.505
Oscar 11 30 Jun 23:27:56 23:30:55 18° 266° (W) 23:33:44 145.826/435.025
ESTCUBE 1 30 Jun 23:32:26 23:36:15 28° 73° (ENE) 23:40:11 437.505/2401.250
CUBEBUG 1 30 Jun 23:46:56 23:50:56 35° 74° (ENE) 23:55:00 437.445
FUNcube-1 30 Jun 23:47:34 23:50:39 19° 265° (W) 23:53:33 145.935
UWE-3 30 Jun 23:49:34 23:51:51 13° 267° (W) 23:53:51 435.000/436.395/437.385
UNISAT 6 01 Jul 00:01:27 00:05:50 76° 102° (ESE) 00:10:18 437.425
HUMSAT D 01 Jul 00:02:22 00:05:58 28° 263° (W) 00:09:29 437.325/437.525
QB50P1 01 Jul 00:03:44 00:07:19 28° 97° (E) 00:10:57 145.935-145.965
VELOX 1 01 Jul 00:05:46 00:10:13 67° 259° (W) 00:14:40 145.980
SRMSAT 01 Jul 00:07:56 00:12:37 24° 189° (S) 00:17:15 437.500
NANOSAT C BR1 01 Jul 00:19:18 00:23:18 43° 99° (E) 00:27:18 145.865
Cosmos 2499 01 Jul 00:26:12 00:33:35 43° 269° (W) 00:41:20 435.465 / 435.565
POLYITAN 1 01 Jul 00:27:14 00:31:23 58° 100° (E) 00:35:31 437.675
DUCHIFAT 1 01 Jul 00:27:39 00:31:45 55° 100° (E) 00:35:51 145.980
TISAT 1 01 Jul 00:28:56 00:31:41 17° 71° (ENE) 00:34:35 437.305
DX 1 01 Jul 00:33:18 00:36:04 16° 267° (W) 00:38:37 434.975-435.025
ANTELSAT 01 Jul 00:46:20 00:50:11 30° 286° (WNW) 00:54:04 437.575/2403.000
AISAT 01 Jul 00:53:02 00:56:12 18° 266° (W) 00:59:11 437.250
QB50P2 01 Jul 00:57:40 01:01:47 54° 285° (WNW) 01:05:53 145.880/145.840
POPSAT HIP 1 01 Jul 00:59:30 01:03:36 53° 284° (WNW) 01:07:41 437.405
TIGRISAT 01 Jul 01:01:02 01:04:26 22° 288° (WNW) 01:07:45 435.000
BUGSAT 1 01 Jul 01:03:22 01:07:26 80° 283° (WNW) 01:11:26 437.445
SPROUT 01 Jul 01:04:43 01:09:02 79° 77° (ENE) 01:13:21 437.525
ESTCUBE 1 01 Jul 01:09:46 01:13:08 20° 266° (W) 01:16:23 437.505/2401.250
CUBEBUG 1 01 Jul 01:24:40 01:27:25 15° 267° (W) 01:29:58 437.445
QB50P1 01 Jul 01:40:07 01:43:00 18° 289° (WNW) 01:45:43 145.935-145.965
NANOSAT C BR1 01 Jul 01:57:17 01:58:47 11° 291° (WNW) 02:00:03 145.865
SRMSAT 01 Jul 01:58:23 02:01:14 14° 197° (SSW) 02:03:58 437.500
TISAT 1 01 Jul 02:03:32 02:07:16 29° 263° (W) 02:10:56 437.305
BEESAT 01 Jul 02:09:42 02:14:06 40° 74° (ENE) 02:18:34 436.000
Oscar 19 01 Jul 02:23:55 02:28:29 33° 97° (E) 02:33:08 437.125/150
SWISSCUBE 01 Jul 02:24:18 02:29:01 65° 75° (ENE) 02:33:46 437.505
ITUPSAT 1 01 Jul 02:27:35 02:32:17 63° 76° (ENE) 02:37:02 437.325
RS-15 01 Jul 02:53:46 03:03:59 51° 110° (ESE) 03:14:31 29.354- 29.394
KKS-1 01 Jul 02:54:11 02:57:04 18° 71° (ENE) 03:00:08 437.445
SO-50 01 Jul 03:13:12 03:17:15 25° 53° (NE) 03:21:18 436.795
PCSat 01 Jul 03:13:18 03:18:45 85° 64° (ENE) 03:24:10 145.827
Cosmos 2491 01 Jul 03:15:11 03:23:16 42° 77° (ENE) 03:31:24 435.465 / 435.565
Gurwin Techsat 1B 01 Jul 03:35:45 03:40:53 49° 99° (E) 03:46:02 435.225
